AirNav   Everest Fuels
 
 1164 users online  

FD41 Grand Cypress Resort Heliport
Kissimmee, Florida, USA

GOING TO KISSIMMEE?


FAA INFORMATION EFFECTIVE 13 AUGUST 2020

Location

FAA Identifier: FD41
Lat/Long: 28-22-51.4300N 081-30-30.7500W
28-22.857167N 081-30.512500W
28.3809528,-81.5085417
(estimated)
Elevation: 105 ft. / 32 m (estimated)
Variation: 03W (1985)
From city: 8 miles NW of KISSIMMEE, FL
Time zone: UTC -4 (UTC -5 during Standard Time)
Zip code: 32836

Heliport Operations

Heliport use: Private use. Permission required prior to landing
Activation date: 10/1985
Control tower: no
ARTCC: JACKSONVILLE CENTER
FSS: SAINT PETERSBURG FLIGHT SERVICE STATION
Attendance: UNATNDD
Wind indicator: lighted
Segmented circle: no
Lights: ACTVT PERIMETER LGTS - 123.05.

Heliport Communications

WX AWOS-3PT at ISM (7 nm SE): 128.775 (407-847-0533)
WX ASOS at MCO (11 nm E): PHONE 407-855-5235
WX ASOS at ORL (14 nm NE): PHONE 407-658-6753

Nearby radio navigation aids

VOR radial/distance  VOR name  Freq  Var
ORLr223/13.3ORLANDO VORTAC112.2000E
LALr047/35.7LAKELAND VORTAC116.0001E

Heliport Services

Runway Information

Helipad H1

Dimensions: 20 x 20 ft. / 6 x 6 m
Surface: concrete
Runway edge lights: PERI
Operational restrictions: INGRESS/EGRESS ROUTE - 180 DEG / 360 DEG.
Latitude: 28-22.857167N
Longitude: 081-30.512500W
Elevation: 105.0 ft.
Traffic pattern: leftleft

Heliport Ownership and Management from official FAA records

Ownership: Privately-owned
Owner: GRAND CYPRESS FLORIDA, L.P.
1 N JACARANDA
ORLANDO, FL 32836
Phone 407-239-4700
Manager: JEFFERY YOST
1 N JACARANDA
ORLANDO, FL 32836
Phone (407) 239-4700
VICE PRESIDENT AND RESORT MANAGER

Additional Remarks

FOR CD CTC ORLANDO APCH AT 407-852-7553.

Instrument Procedures

There are no published instrument procedures at FD41.

Some nearby airports with instrument procedures:

KISM - Kissimmee Gateway Airport (7 nm SE)
KMCO - Orlando International Airport (11 nm E)
KORL - Executive Airport (14 nm NE)
X04 - Orlando Apopka Airport (20 nm N)
KGIF - Winter Haven Regional Airport (23 nm SW)
 
Loc | Ops | Rwys | IFR | FBO | Links
Com | Nav | Svcs | Stats | Notes


 
Area around FD41 (Grand Cypress Resort Heliport)
 
Road maps at: MapQuest Bing Google
 
Aerial photo
No photo
 
Sectional chart

 
Airport distance calculator
Flying to Grand Cypress Resort Heliport? Find the distance to fly.

From to FD41

Sunrise and sunset
Times for 14-Aug-2020
 Local
(UTC-4)
 Zulu
(UTC)
Morning civil twilight06:3210:32
Sunrise06:5710:57
Sunset20:0400:04
Evening civil twilight20:2900:29

Current date and time
Zulu (UTC)  14-Aug-2020 23:19:40
Local (UTC-4)  14-Aug-2020 19:19:40
 
METAR
KISM 
7nm SE 
142256Z 34007KT 10SM BKN055 32/23 A2995 RMK AO2 LTG DSNT NE AND E TSB40E55 SLP142 T03170228
KMCO 
9nm E 
142258Z 30009KT 10SM TS SCT050CB SCT130 BKN200 BKN250 31/22 A2994 RMK AO2 LTG DSNT N-SE TSE54B58 FRQ LTGICCG NE TS NE STNRY CB DSNT S-SE TCU SE VCSH NE T03060222
KORL 
14nm NE 
142253Z AUTO VRB05KT 10SM VCTS CLR 31/21 A2994 RMK AO2 LTG DSNT ALQDS SLP141 T03110211
TAF
KISM 
7nm SE 
141739Z 1418/1518 19005KT P6SM FEW035 SCT250 FM141830 20008KT P6SM VCTS SCT035CB SCT080 BKN200 TEMPO 1419/1421 4SM TSRA BKN030CB BKN060 FM150000 17006KT P6SM FEW050 BKN250 FM151500 21006KT P6SM FEW035 SCT250
KMCO 
9nm E 
142059Z 1421/1524 16007KT P6SM VCTS FEW045CB SCT250 TEMPO 1421/1423 VRB15G25KT 3SM TSRA BKN030CB BKN060 FM150100 17005KT P6SM FEW030 BKN250 FM151400 20006KT P6SM FEW035 SCT250 FM151900 22008KT P6SM VCTS SCT035CB SCT060 SCT250
NOTAMs
Click for the latest NOTAMs
NOTAMs are issued by the DoD/FAA and will open in a separate window not controlled by AirNav.

 

 
 

Would you like to see your business listed on this page?

 If your business provides an interesting product or service to pilots, flight crews, aircraft, or users of the Grand Cypress Resort Heliport, you should consider listing it here.  To start the listing process, click on the button below
 
Add a business
 

Other Pages about Grand Cypress Resort Heliport

Update a link
 
Copyright © AirNav, LLC. All rights reserved. Privacy Policy  Contact